Simultaneous Nadir Overpasses (SNOs) Predictions

Prediction of SNOs between GOES-15 and TERRA Satellite Orbit:

Table of predicted SNOs for the next 14.0 days since TLE Epoch: 4/5/2013
Index Date Time (GOES-15) GOES-15 Lat,Lon TERRA Lat,Lon Distance(km) Time Diff (sec)
1 04/06/2013 19:28:03 -0.01,-134.82 -0.15,-134.18 72.60 80
2 04/08/2013 19:15:52 -0.01,-134.74 -0.77,-131.23 400.14 80
3 04/09/2013 07:34:35 0.01,-134.74 -0.36,-136.42 190.55 80
4 04/11/2013 07:25:05 0.01,-134.66 0.27,-133.46 136.45 80
5 04/11/2013 19:43:39 -0.01,-134.62 0.86,-138.61 454.53 80
6 04/13/2013 07:12:53 0.01,-134.57 0.85,-130.49 462.84 80
7 04/13/2013 19:31:28 -0.01,-134.53 0.22,-135.65 128.29 80
8 04/15/2013 19:21:56 -0.02,-134.43 -0.36,-132.69 197.37 80
9 04/16/2013 07:40:41 0.02,-134.42 -0.69,-137.89 393.72 80
10 04/18/2013 07:28:29 0.03,-134.32 -0.09,-134.93 68.64 80




NCC Satellite Simultaneous Nadir Overpasses (SNOs) Prediction Service
